When you browse on this site, cookies collect data to enhance your experience and personalize the content and advertising you see.
Visit our Privacy Policy to learn more. By continuing to use the site, you agree to this use of cookies and data.

Previsão horária em Abaete

Hoje, 25 Setembro, Sexta-feira

Tempo Temperatura Precipitação Vento Pressão Humidade
00:00 +24°C° 0 mm 1 m/s 709 mmHg 64%
01:00 +24°C° 0 mm 1 m/s 709 mmHg 67%
02:00 +23°C° 0 mm 1 m/s 709 mmHg 71%
03:00 +20°C° 0 mm 0 m/s 709 mmHg 73%
04:00 +21°C° 0 mm 1 m/s 709 mmHg 76%
05:00 +21°C° 0 mm 1 m/s 709 mmHg 79%
06:00 +20°C° 0 mm 1 m/s 709 mmHg 81%
07:00 +23°C° 0 mm 1 m/s 710 mmHg 71%
08:00 +25°C° 0 mm 2 m/s 710 mmHg 62%
09:00 +27°C° 0 mm 2 m/s 711 mmHg 52%
10:00 +29°C° 0 mm 2 m/s 711 mmHg 44%
11:00 +32°C° 0 mm 2 m/s 711 mmHg 37%
12:00 +35°C° 0 mm 2 m/s 711 mmHg 29%
13:00 +34°C° 0 mm 1 m/s 710 mmHg 26%
14:00 +35°C° 0 mm 1 m/s 709 mmHg 23%
15:00 +36°C° 0 mm 1 m/s 708 mmHg 21%
16:00 +34°C° 0 mm 1 m/s 708 mmHg 23%
17:00 +32°C° 0 mm 1 m/s 708 mmHg 25%
18:00 +30°C° 0 mm 1 m/s 707 mmHg 27%
19:00 +29°C° 0 mm 1 m/s 708 mmHg 30%
20:00 +28°C° 0 mm 2 m/s 708 mmHg 32%
21:00 +27°C° 0 mm 2 m/s 708 mmHg 35%
22:00 +26°C° 0 mm 2 m/s 708 mmHg 40%
23:00 +25°C° 0 mm 1 m/s 708 mmHg 46%

Amanhã, 26 Setembro, Sábado

Tempo Temperatura Precipitação Vento Pressão Humidade
00:00 +24°C° 0 mm 1 m/s 708 mmHg 51%
01:00 +23°C° 0 mm 1 m/s 708 mmHg 54%
02:00 +23°C° 0 mm 1 m/s 707 mmHg 58%
03:00 +22°C° 0 mm 1 m/s 707 mmHg 62%
04:00 +22°C° 0 mm 1 m/s 707 mmHg 65%
05:00 +21°C° 0 mm 1 m/s 707 mmHg 68%
06:00 +21°C° 0 mm 1 m/s 708 mmHg 71%
07:00 +23°C° 0 mm 1 m/s 708 mmHg 62%
08:00 +26°C° 0 mm 2 m/s 709 mmHg 54%
09:00 +28°C° 0 mm 2 m/s 710 mmHg 45%
10:00 +30°C° 0 mm 2 m/s 709 mmHg 39%
11:00 +32°C° 0 mm 2 m/s 709 mmHg 33%
12:00 +36°C° 0 mm 2 m/s 709 mmHg 27%
13:00 +35°C° 0 mm 1 m/s 708 mmHg 24%
14:00 +36°C° 0 mm 1 m/s 707 mmHg 22%
15:00 +37°C° 0 mm 1 m/s 706 mmHg 19%
16:00 +35°C° 0 mm 1 m/s 706 mmHg 21%
17:00 +33°C° 0 mm 1 m/s 706 mmHg 23%
18:00 +31°C° 0 mm 1 m/s 706 mmHg 25%
19:00 +30°C° 0 mm 1 m/s 706 mmHg 27%
20:00 +29°C° 0 mm 1 m/s 706 mmHg 29%
21:00 +28°C° 0 mm 1 m/s 706 mmHg 31%
22:00 +27°C° 0 mm 1 m/s 706 mmHg 33%
23:00 +26°C° 0 mm 1 m/s 706 mmHg 36%

Depois de amanhã, 27 Setembro, Domingo

Tempo Temperatura Precipitação Vento Pressão Humidade
00:00 +25°C° 0 mm 2 m/s 706 mmHg 38%
01:00 +24°C° 0 mm 1 m/s 706 mmHg 41%
02:00 +24°C° 0 mm 1 m/s 705 mmHg 43%
03:00 +23°C° 0 mm 1 m/s 705 mmHg 46%
04:00 +22°C° 0 mm 1 m/s 705 mmHg 49%
05:00 +22°C° 0 mm 1 m/s 706 mmHg 51%
06:00 +21°C° 0 mm 1 m/s 706 mmHg 54%
07:00 +24°C° 0 mm 1 m/s 707 mmHg 47%
08:00 +27°C° 0 mm 1 m/s 707 mmHg 41%
09:00 +30°C° 0 mm 2 m/s 708 mmHg 34%
10:00 +32°C° 0 mm 2 m/s 708 mmHg 30%
11:00 +35°C° 0 mm 2 m/s 707 mmHg 25%
12:00 +37°C° 0 mm 2 m/s 707 mmHg 21%
13:00 +38°C° 0 mm 2 m/s 707 mmHg 19%
14:00 +39°C° 0 mm 2 m/s 706 mmHg 17%
15:00 +39°C° 0 mm 1 m/s 706 mmHg 15%
16:00 +36°C° 0 mm 1 m/s 705 mmHg 16%
17:00 +34°C° 0 mm 1 m/s 705 mmHg 18%
18:00 +32°C° 0 mm 1 m/s 705 mmHg 20%
19:00 +31°C° 0 mm 1 m/s 705 mmHg 21%
20:00 +30°C° 0 mm 1 m/s 705 mmHg 23%
21:00 +27°C° 0 mm 0 m/s 706 mmHg 24%
22:00 +28°C° 0 mm 1 m/s 706 mmHg 25%
23:00 +27°C° 0 mm 1 m/s 706 mmHg 26%

28 Setembro, Segunda-feira

Tempo Temperatura Precipitação Vento Pressão Humidade
00:00 +27°C° 0 mm 1 m/s 706 mmHg 27%
01:00 +26°C° 0 mm 1 m/s 705 mmHg 29%
02:00 +25°C° 0 mm 1 m/s 705 mmHg 32%
03:00 +22°C° 0 mm 0 m/s 704 mmHg 34%
04:00 +22°C° 0 mm 0 m/s 705 mmHg 36%
05:00 +21°C° 0 mm 0 m/s 705 mmHg 37%
06:00 +21°C° 0 mm 0 m/s 705 mmHg 39%
07:00 +26°C° 0 mm 1 m/s 706 mmHg 35%
08:00 +29°C° 0 mm 2 m/s 706 mmHg 30%
09:00 +33°C° 0 mm 3 m/s 707 mmHg 26%
10:00 +35°C° 0 mm 3 m/s 707 mmHg 23%
11:00 +37°C° 0 mm 3 m/s 707 mmHg 19%
12:00 +39°C° 0 mm 2 m/s 707 mmHg 16%
13:00 +40°C° 0 mm 2 m/s 706 mmHg 15%
14:00 +41°C° 0 mm 2 m/s 705 mmHg 14%
15:00 +41°C° 0 mm 1 m/s 705 mmHg 13%
16:00 +39°C° 0 mm 1 m/s 704 mmHg 15%
17:00 +36°C° 0 mm 1 m/s 704 mmHg 17%
18:00 +35°C° 0 mm 2 m/s 704 mmHg 19%
19:00 +32°C° 0 mm 1 m/s 704 mmHg 20%
20:00 +31°C° 0 mm 1 m/s 705 mmHg 21%
21:00 +28°C° 0 mm 0 m/s 705 mmHg 23%
22:00 +29°C° 0 mm 1 m/s 705 mmHg 23%
23:00 +29°C° 0 mm 1 m/s 705 mmHg 24%

29 Setembro, Terça-feira

Tempo Temperatura Precipitação Vento Pressão Humidade
00:00 +28°C° 0 mm 1 m/s 705 mmHg 24%
01:00 +27°C° 0 mm 1 m/s 705 mmHg 27%
02:00 +26°C° 0 mm 1 m/s 704 mmHg 29%
03:00 +25°C° 0 mm 1 m/s 704 mmHg 31%
04:00 +25°C° 0 mm 1 m/s 704 mmHg 32%
05:00 +25°C° 0 mm 1 m/s 705 mmHg 34%
06:00 +24°C° 0 mm 1 m/s 705 mmHg 35%
07:00 +27°C° 0 mm 1 m/s 706 mmHg 31%
08:00 +30°C° 0 mm 2 m/s 707 mmHg 27%
09:00 +35°C° 0 mm 2 m/s 707 mmHg 22%
10:00 +37°C° 0 mm 2 m/s 707 mmHg 20%
11:00 +39°C° 0 mm 2 m/s 707 mmHg 17%
12:00 +41°C° 0 mm 2 m/s 707 mmHg 15%
13:00 +41°C° 0 mm 2 m/s 707 mmHg 14%
14:00 +42°C° 0 mm 1 m/s 706 mmHg 13%
15:00 +42°C° 0 mm 1 m/s 705 mmHg 12%
16:00 +40°C° 0 mm 1 m/s 705 mmHg 14%
17:00 +39°C° 0 mm 2 m/s 705 mmHg 16%
18:00 +37°C° 0 mm 2 m/s 705 mmHg 17%
19:00 +36°C° 0 mm 3 m/s 706 mmHg 20%
20:00 +35°C° 0 mm 3 m/s 706 mmHg 23%
21:00 +33°C° 0 mm 3 m/s 707 mmHg 26%
22:00 +31°C° 0 mm 3 m/s 707 mmHg 30%
23:00 +30°C° 0 mm 2 m/s 707 mmHg 35%

30 Setembro, Quarta-feira

Tempo Temperatura Precipitação Vento Pressão Humidade
00:00 +28°C° 0 mm 2 m/s 707 mmHg 40%
01:00 +27°C° 0 mm 2 m/s 707 mmHg 42%
02:00 +27°C° 0 mm 2 m/s 706 mmHg 45%
03:00 +26°C° 0 mm 1 m/s 706 mmHg 48%
04:00 +25°C° 0 mm 2 m/s 706 mmHg 51%
05:00 +25°C° 0 mm 2 m/s 707 mmHg 53%
06:00 +24°C° 0 mm 2 m/s 707 mmHg 56%
07:00 +27°C° 0 mm 2 m/s 708 mmHg 49%
08:00 +29°C° 0 mm 3 m/s 708 mmHg 42%
09:00 +33°C° 0 mm 4 m/s 709 mmHg 35%
10:00 +35°C° 0 mm 4 m/s 709 mmHg 30%
11:00 +37°C° 0 mm 4 m/s 708 mmHg 24%
12:00 +40°C° 0 mm 4 m/s 708 mmHg 19%
13:00 +41°C° 0 mm 4 m/s 707 mmHg 17%
14:00 +41°C° 0 mm 4 m/s 707 mmHg 16%
15:00 +42°C° 0 mm 4 m/s 706 mmHg 14%
16:00 +39°C° 0 mm 3 m/s 706 mmHg 16%
17:00 +37°C° 0 mm 3 m/s 706 mmHg 18%
18:00 +36°C° 0 mm 2 m/s 706 mmHg 20%
19:00 +34°C° 0 mm 3 m/s 706 mmHg 23%
20:00 +33°C° 0 mm 3 m/s 706 mmHg 26%
21:00 +31°C° 0 mm 3 m/s 707 mmHg 29%
22:00 +30°C° 0 mm 3 m/s 707 mmHg 33%
23:00 +29°C° 0 mm 2 m/s 707 mmHg 37%
Mostrar mais